Philadelphia Wings Airport, PA

9:29 PM EDT on March 30, 2017 (GMT -0400)
Philadelphia Wings Airport

Weather History for KLOM - January, 2014

Change the Weather History Date:

Thursday, January 16, 2014

  Actual Average (KPNE) Record (KPNE)
Temperature  
Mean Temperature 34 °F -  
Max Temperature 39 °F 35 °F 62 °F (2007)
Min Temperature 28 °F 21 °F 3 °F (2004)
Degree Days  
Heating Degree Days 32    
Moisture  
Dew Point 28 °F    
Average Humidity 78    
Maximum Humidity 93    
Minimum Humidity 56    
Precipitation  
Precipitation 0.02 in - - ()
Sea Level Pressure  
Sea Level Pressure 29.92 in    
Wind  
Wind Speed 2 mph (WNW)    
Max Wind Speed 8 mph    
Max Gust Speed -    
Visibility 10 miles    
Events      
Averages and records for this station are not official NWS values.
T = Trace of Precipitation, MM = Missing Value Source: NWS Daily Summary

Daily Weather History Graph

Daily Weather History Graph

Search for Another Location

Airport or City:

Trip Planner

Search our weather history database for the weather conditions in past years. The results will help you decide how hot, cold, wet, or windy it might be!

Date:

Astronomy

Jan. 16, 2014 Rise Set
Actual Time 7:21 AM EST 5:01 PM EST
Civil Twilight 6:51 AM EST 5:30 PM EST
Nautical Twilight 6:17 AM EST 6:04 PM EST
Astronomical Twilight 5:45 AM EST 6:36 PM EST
Moon 5:50 PM EST (1/16) 7:13 AM EST (1/16)
Length of Visible Light 10h 39m
Length of Day
9h 40m
Full, 100% of the Moon is Illuminated
Jan 16
Full
Jan 24
Last Quarter
Jan 30
New
Feb 6
First Quarter
Feb 14
Full

Hourly Weather History & Observations

Time (EST) Temp. Windchill Dew Point Humidity Pressure Visibility Wind Dir Wind Speed Gust Speed Precip Events Conditions
12:15 AM 37.4 °F - 35.6 °F 93% 29.91 in 7.0 mi Calm Calm - N/A   Overcast
12:35 AM 37.4 °F - 35.6 °F 93% 29.91 in 7.0 mi Calm Calm - N/A   Mostly Cloudy
12:55 AM 37.4 °F 32.1 °F 32.0 °F 81% 29.92 in 7.0 mi NW 6.9 mph - 0.01 in   Overcast
1:15 AM 37.4 °F 33.8 °F 32.0 °F 81% 29.92 in 10.0 mi North 4.6 mph - N/A   Overcast
1:35 AM 37.4 °F - 32.0 °F 81% 29.91 in 10.0 mi Calm Calm - N/A   Mostly Cloudy
1:55 AM 37.4 °F - 32.0 °F 81% 29.92 in 10.0 mi Calm Calm - N/A   Mostly Cloudy
2:15 AM 37.4 °F - 32.0 °F 81% 29.91 in 10.0 mi Calm Calm - N/A   Overcast
2:35 AM 37.4 °F 33.8 °F 32.0 °F 81% 29.91 in 10.0 mi NW 4.6 mph - N/A   Overcast
2:55 AM 35.6 °F - 32.0 °F 87% 29.91 in 10.0 mi Calm Calm - N/A   Overcast
3:15 AM 35.6 °F - 32.0 °F 87% 29.91 in 10.0 mi Calm Calm - N/A   Overcast
3:35 AM 35.6 °F 32.8 °F 32.0 °F 87% 29.92 in 5.0 mi West 3.5 mph - N/A   Overcast
3:55 AM 35.6 °F - 32.0 °F 87% 29.91 in 7.0 mi Calm Calm - 0.01 in   Overcast
4:15 AM 35.6 °F 31.7 °F 32.0 °F 87% 29.93 in 7.0 mi West 4.6 mph - N/A   Overcast
4:35 AM 33.8 °F 29.6 °F 30.2 °F 87% 29.92 in 10.0 mi WNW 4.6 mph - N/A   Mostly Cloudy
4:55 AM 33.8 °F 29.6 °F 30.2 °F 87% 29.92 in 7.0 mi WNW 4.6 mph - N/A   Mostly Cloudy
5:15 AM 33.8 °F - 30.2 °F 87% 29.92 in 10.0 mi Calm Calm - N/A   Mostly Cloudy
5:35 AM 33.8 °F - 30.2 °F 87% 29.91 in 10.0 mi Calm Calm - N/A   Overcast
5:55 AM 35.6 °F - 28.4 °F 75% 29.89 in 10.0 mi Calm Calm - N/A   Overcast
6:15 AM 35.6 °F - 28.4 °F 75% 29.89 in 10.0 mi Calm Calm - N/A   Overcast
6:35 AM 35.6 °F 31.7 °F 28.4 °F 75% 29.90 in 10.0 mi WNW 4.6 mph - N/A   Overcast
6:55 AM 35.6 °F 32.8 °F 28.4 °F 75% 29.90 in 10.0 mi NW 3.5 mph - N/A   Overcast
7:15 AM 35.6 °F 32.8 °F 28.4 °F 75% 29.90 in 10.0 mi WNW 3.5 mph - N/A   Overcast
7:35 AM 35.6 °F - 28.4 °F 75% 29.92 in 10.0 mi Calm Calm - N/A   Overcast
7:55 AM 33.8 °F 28.6 °F 28.4 °F 81% 29.93 in 10.0 mi West 5.8 mph - N/A   Overcast
8:15 AM 33.8 °F 30.8 °F 28.4 °F 81% 29.93 in 10.0 mi WNW 3.5 mph - N/A   Mostly Cloudy
8:35 AM 33.8 °F 29.6 °F 30.2 °F 87% 29.96 in 7.0 mi WNW 4.6 mph - N/A   Overcast
8:55 AM 33.8 °F 30.8 °F 30.2 °F 87% 29.95 in 7.0 mi NW 3.5 mph - N/A   Overcast
9:15 AM 33.8 °F 29.6 °F 28.4 °F 81% 29.97 in 10.0 mi West 4.6 mph - N/A   Overcast
9:35 AM 33.8 °F 30.8 °F 30.2 °F 87% 29.97 in 10.0 mi West 3.5 mph - N/A   Mostly Cloudy
9:55 AM 35.6 °F 32.8 °F 30.2 °F 81% 29.96 in 10.0 mi WNW 3.5 mph - N/A   Scattered Clouds
10:15 AM 35.6 °F 31.7 °F 28.4 °F 75% 29.96 in 10.0 mi West 4.6 mph - N/A   Clear
10:35 AM 35.6 °F 29.9 °F 28.4 °F 75% 29.97 in 10.0 mi West 6.9 mph - N/A   Mostly Cloudy
10:55 AM 35.6 °F 32.8 °F 26.6 °F 70% 29.96 in 10.0 mi West 3.5 mph - N/A   Overcast
11:15 AM 35.6 °F - 26.6 °F 70% 29.93 in 10.0 mi Calm Calm - N/A   Scattered Clouds
11:35 AM 35.6 °F 31.7 °F 26.6 °F 70% 29.91 in 10.0 mi West 4.6 mph - N/A   Scattered Clouds
11:55 AM 35.6 °F 29.2 °F 24.8 °F 65% 29.92 in 10.0 mi West 8.1 mph - N/A   Mostly Cloudy
12:15 PM 35.6 °F 30.7 °F 24.8 °F 65% 29.90 in 10.0 mi WNW 5.8 mph - N/A   Overcast
12:35 PM 35.6 °F 30.7 °F 23.0 °F 60% 29.90 in 10.0 mi WNW 5.8 mph - N/A   Overcast
12:55 PM 37.4 °F 32.8 °F 24.8 °F 60% 29.89 in 10.0 mi NW 5.8 mph - N/A   Overcast
1:15 PM 35.6 °F 29.2 °F 23.0 °F 60% 29.88 in 10.0 mi WNW 8.1 mph - N/A   Overcast
1:35 PM 37.4 °F 32.8 °F 24.8 °F 60% 29.87 in 10.0 mi West 5.8 mph - N/A   Mostly Cloudy
1:55 PM 37.4 °F 32.1 °F 23.0 °F 56% 29.86 in 10.0 mi NNW 6.9 mph - N/A   Overcast
2:15 PM 37.4 °F 33.8 °F 26.6 °F 65% 29.85 in 10.0 mi NW 4.6 mph - N/A   Overcast
2:35 PM 37.4 °F 34.9 °F 24.8 °F 60% 29.86 in 10.0 mi WNW 3.5 mph - N/A   Overcast
2:55 PM 37.4 °F - 24.8 °F 60% 29.86 in 10.0 mi Calm Calm - N/A   Overcast
3:35 PM 39.2 °F - 24.8 °F 56% 29.87 in 10.0 mi Calm Calm - N/A   Scattered Clouds
3:55 PM 39.2 °F - 24.8 °F 56% 29.87 in 10.0 mi Calm Calm - N/A   Scattered Clouds
4:15 PM 37.4 °F - 24.8 °F 60% 29.88 in 10.0 mi Calm Calm - N/A   Scattered Clouds
4:35 PM 37.4 °F - 26.6 °F 65% 29.89 in 10.0 mi Calm Calm - N/A   Clear
4:55 PM 37.4 °F - 26.6 °F 65% 29.89 in 10.0 mi Calm Calm - N/A   Scattered Clouds
5:15 PM 35.6 °F - 26.6 °F 70% 29.89 in 10.0 mi Calm Calm - N/A   Clear
5:35 PM 33.8 °F - 28.4 °F 81% 29.89 in 10.0 mi Calm Calm - N/A   Clear
5:55 PM 32.0 °F - 28.4 °F 87% 29.89 in 10.0 mi Calm Calm - N/A   Clear
6:15 PM 32.0 °F - 26.6 °F 80% 29.90 in 10.0 mi Calm Calm - N/A   Clear
6:35 PM 32.0 °F - 28.4 °F 87% 29.90 in 10.0 mi Calm Calm - N/A   Clear
6:55 PM 32.0 °F - 28.4 °F 87% 29.91 in 10.0 mi Calm Calm - N/A   Clear
7:15 PM 32.0 °F - 28.4 °F 87% 29.92 in 10.0 mi Calm Calm - N/A   Clear
7:35 PM 32.0 °F - 26.6 °F 80% 29.93 in 10.0 mi Calm Calm - N/A   Clear
7:55 PM 32.0 °F - 26.6 °F 80% 29.93 in 10.0 mi Calm Calm - N/A   Clear
8:15 PM 32.0 °F - 26.6 °F 80% 29.94 in 10.0 mi Calm Calm - N/A   Clear
8:35 PM 30.2 °F - 26.6 °F 86% 29.95 in 10.0 mi Calm Calm - N/A   Clear
8:55 PM 30.2 °F - 26.6 °F 86% 29.95 in 10.0 mi Calm Calm - N/A   Clear
9:15 PM 30.2 °F - 26.6 °F 86% 29.96 in 10.0 mi Calm Calm - N/A   Clear
9:35 PM 30.2 °F - 26.6 °F 86% 29.96 in 10.0 mi Calm Calm - N/A   Clear
9:55 PM 28.4 °F - 26.6 °F 93% 29.96 in 10.0 mi Calm Calm - N/A   Clear
10:15 PM 30.2 °F - 24.8 °F 80% 29.96 in 10.0 mi Calm Calm - N/A   Clear
10:35 PM 30.2 °F - 24.8 °F 80% 29.96 in 10.0 mi Calm Calm - N/A   Clear
10:55 PM 28.4 °F - 24.8 °F 86% 29.96 in 10.0 mi Calm Calm - N/A   Clear
11:15 PM 28.4 °F - 24.8 °F 86% 29.96 in 10.0 mi Calm Calm - N/A   Clear
11:35 PM 28.4 °F - 23.0 °F 80% 29.95 in 10.0 mi Calm Calm - N/A   Clear
11:55 PM 28.4 °F - 24.8 °F 86% 29.95 in 10.0 mi Calm Calm - N/A   Clear